Time,TemperatureF,DewpointF,PressureIn,WindDirection,WindDirectionDegrees,WindSpeedMPH,WindSpeedGustMPH,Humidity,HourlyPrecipIn,Conditions,Clouds,dailyrainin,SolarRadiationWatts/m^2,SoftwareType,DateUTC
2013-03-27 00:01:00,47.8,43.2,30.01,North,355,0.0,0.0,84,0.00,,,0.00,0,Wunderground v.1.15,2013-03-27 07:01:00,
2013-03-27 00:06:00,47.8,43.2,30.01,North,355,0.0,0.0,84,0.00,,,0.00,0,Wunderground v.1.15,2013-03-27 07:06:00,
2013-03-27 00:11:00,47.8,43.2,30.00,North,355,0.0,0.0,84,0.00,,,0.00,0,Wunderground v.1.15,2013-03-27 07:11:00,
2013-03-27 00:17:00,47.9,43.3,30.01,North,355,0.0,0.0,84,0.00,,,0.00,0,Wunderground v.1.15,2013-03-27 07:17:00,
2013-03-27 00:23:00,47.9,43.6,30.00,North,355,0.0,0.0,85,0.00,,,0.00,0,Wunderground v.1.15,2013-03-27 07:23:00,
2013-03-27 00:28:00,47.9,43.6,30.00,North,355,0.0,0.0,85,0.00,,,0.00,0,Wunderground v.1.15,2013-03-27 07:28:00,
2013-03-27 00:33:00,47.8,43.5,30.01,North,355,0.0,0.0,85,0.00,,,0.00,0,Wunderground v.1.15,2013-03-27 07:33:00,
2013-03-27 00:38:00,47.8,43.5,30.00,North,355,0.0,0.0,85,0.00,,,0.00,0,Wunderground v.1.15,2013-03-27 07:38:00,
2013-03-27 00:43:00,47.6,43.3,30.00,North,355,0.0,0.0,85,0.00,,,0.00,0,Wunderground v.1.15,2013-03-27 07:43:00,
2013-03-27 00:49:00,47.6,43.3,30.00,North,355,0.0,0.0,85,0.00,,,0.00,0,Wunderground v.1.15,2013-03-27 07:49:00,
2013-03-27 00:55:00,47.5,43.2,30.00,North,355,0.0,0.0,85,0.00,,,0.00,0,Wunderground v.1.15,2013-03-27 07:55:00,
2013-03-27 01:01:00,47.4,43.1,30.00,North,355,0.0,0.0,85,0.00,,,0.00,0,Wunderground v.1.15,2013-03-27 08:01:00,
2013-03-27 01:06:00,47.4,43.1,30.00,North,355,0.0,0.0,85,0.00,,,0.00,0,Wunderground v.1.15,2013-03-27 08:06:00,
2013-03-27 01:12:00,47.4,43.1,30.00,North,355,0.0,0.0,85,0.00,,,0.00,0,Wunderground v.1.15,2013-03-27 08:12:00,
2013-03-27 01:17:00,47.5,43.2,30.00,North,355,0.0,0.0,85,0.00,,,0.00,0,Wunderground v.1.15,2013-03-27 08:17:00,
2013-03-27 01:23:00,47.6,43.3,30.00,North,355,0.0,0.0,85,0.00,,,0.00,0,Wunderground v.1.15,2013-03-27 08:23:00,
2013-03-27 01:28:00,47.6,43.3,30.00,North,355,0.0,0.0,85,0.00,,,0.00,0,Wunderground v.1.15,2013-03-27 08:28:00,
2013-03-27 01:33:00,47.6,43.3,30.00,North,355,0.0,0.0,85,0.00,,,0.00,0,Wunderground v.1.15,2013-03-27 08:33:00,
2013-03-27 01:39:00,47.7,43.1,29.99,North,355,0.0,0.0,84,0.00,,,0.00,0,Wunderground v.1.15,2013-03-27 08:39:00,
2013-03-27 01:44:00,47.7,43.1,29.99,North,355,0.0,0.0,84,0.00,,,0.00,0,Wunderground v.1.15,2013-03-27 08:44:00,
2013-03-27 01:50:00,47.7,43.1,29.99,North,355,0.0,0.0,84,0.00,,,0.00,0,Wunderground v.1.15,2013-03-27 08:50:00,
2013-03-27 01:56:00,47.8,42.9,29.99,North,355,0.0,0.0,83,0.00,,,0.00,0,Wunderground v.1.15,2013-03-27 08:56:00,
2013-03-27 02:02:00,47.8,42.6,29.99,North,355,0.0,0.0,82,0.00,,,0.00,0,Wunderground v.1.15,2013-03-27 09:02:00,
2013-03-27 02:07:00,47.8,42.6,29.99,North,355,0.0,0.0,82,0.00,,,0.00,0,Wunderground v.1.15,2013-03-27 09:07:00,
2013-03-27 02:13:00,47.7,42.2,29.99,North,355,0.0,0.0,81,0.00,,,0.00,0,Wunderground v.1.15,2013-03-27 09:13:00,
2013-03-27 02:19:00,47.7,42.2,29.99,North,355,0.0,0.0,81,0.00,,,0.00,0,Wunderground v.1.15,2013-03-27 09:19:00,
2013-03-27 02:24:00,47.7,41.8,29.99,North,355,0.0,0.0,80,0.00,,,0.00,0,Wunderground v.1.15,2013-03-27 09:24:00,
2013-03-27 02:30:00,47.7,41.8,29.99,North,355,0.0,0.0,80,0.00,,,0.00,0,Wunderground v.1.15,2013-03-27 09:30:00,
2013-03-27 02:36:00,47.7,41.8,29.99,North,355,0.0,0.0,80,0.00,,,0.00,0,Wunderground v.1.15,2013-03-27 09:36:00,
2013-03-27 02:42:00,47.8,41.9,29.99,North,355,0.0,0.0,80,0.00,,,0.00,0,Wunderground v.1.15,2013-03-27 09:42:00,
2013-03-27 02:47:00,47.8,41.9,29.98,North,355,0.0,0.0,80,0.00,,,0.00,0,Wunderground v.1.15,2013-03-27 09:47:00,
2013-03-27 02:52:00,47.9,42.0,29.98,North,355,0.0,0.0,80,0.00,,,0.00,0,Wunderground v.1.15,2013-03-27 09:52:00,
2013-03-27 02:58:00,47.9,42.7,29.98,North,355,0.0,0.0,82,0.00,,,0.00,0,Wunderground v.1.15,2013-03-27 09:58:00,
2013-03-27 03:03:00,47.9,42.7,29.98,North,355,0.0,0.0,82,0.00,,,0.00,0,Wunderground v.1.15,2013-03-27 10:03:00,
2013-03-27 03:08:00,47.9,42.7,29.98,North,355,0.0,0.0,82,0.00,,,0.00,0,Wunderground v.1.15,2013-03-27 10:08:00,
2013-03-27 03:14:00,47.9,42.7,29.98,North,355,0.0,0.0,82,0.00,,,0.00,0,Wunderground v.1.15,2013-03-27 10:14:00,
2013-03-27 03:21:00,47.8,42.6,29.98,North,355,0.0,0.0,82,0.00,,,0.00,0,Wunderground v.1.15,2013-03-27 10:21:00,
2013-03-27 03:26:00,47.7,42.5,29.98,North,355,0.0,0.0,82,0.00,,,0.00,0,Wunderground v.1.15,2013-03-27 10:26:00,
2013-03-27 03:31:00,47.7,42.5,29.98,North,355,0.0,0.0,82,0.00,,,0.00,0,Wunderground v.1.15,2013-03-27 10:31:00,
2013-03-27 03:36:00,47.7,42.8,29.98,North,355,0.0,0.0,83,0.00,,,0.00,0,Wunderground v.1.15,2013-03-27 10:36:00,
2013-03-27 03:41:00,47.7,43.1,29.98,North,355,0.0,0.0,84,0.00,,,0.00,0,Wunderground v.1.15,2013-03-27 10:41:00,
2013-03-27 03:47:00,47.8,43.5,29.98,North,355,0.0,0.0,85,0.00,,,0.00,0,Wunderground v.1.15,2013-03-27 10:47:00,
2013-03-27 03:52:00,47.8,43.8,29.98,North,355,0.0,0.0,86,0.00,,,0.00,0,Wunderground v.1.15,2013-03-27 10:52:00,
2013-03-27 03:58:00,47.9,43.9,29.98,North,355,0.0,0.0,86,0.00,,,0.00,0,Wunderground v.1.15,2013-03-27 10:58:00,
2013-03-27 04:03:00,47.9,44.2,29.98,North,355,0.0,0.0,87,0.00,,,0.00,0,Wunderground v.1.15,2013-03-27 11:03:00,
2013-03-27 04:08:00,47.9,44.2,29.98,North,355,0.0,0.0,87,0.00,,,0.00,0,Wunderground v.1.15,2013-03-27 11:08:00,
2013-03-27 04:14:00,47.8,44.1,29.97,North,355,0.0,0.0,87,0.00,,,0.00,0,Wunderground v.1.15,2013-03-27 11:14:00,
2013-03-27 04:21:00,47.7,44.0,29.97,North,355,0.0,0.0,87,0.00,,,0.00,0,Wunderground v.1.15,2013-03-27 11:21:00,
2013-03-27 04:26:00,47.6,44.2,29.97,ENE,69,0.0,0.0,88,0.00,,,0.00,0,Wunderground v.1.15,2013-03-27 11:26:00,
2013-03-27 04:31:00,47.5,44.1,29.97,East,100,2.0,6.0,88,0.00,,,0.00,0,Wunderground v.1.15,2013-03-27 11:31:00,
2013-03-27 04:36:00,47.5,44.1,29.97,ESE,121,4.0,6.0,88,0.00,,,0.00,0,Wunderground v.1.15,2013-03-27 11:36:00,
2013-03-27 04:42:00,47.5,44.1,29.97,SE,130,4.0,5.0,88,0.00,,,0.00,0,Wunderground v.1.15,2013-03-27 11:42:00,
2013-03-27 04:47:00,47.5,44.1,29.97,SE,131,3.0,5.0,88,0.00,,,0.00,0,Wunderground v.1.15,2013-03-27 11:47:00,
2013-03-27 04:53:00,47.6,44.2,29.97,SE,131,0.0,1.0,88,0.00,,,0.00,0,Wunderground v.1.15,2013-03-27 11:53:00,
2013-03-27 04:58:00,47.6,44.2,29.97,SE,131,0.0,1.0,88,0.00,,,0.00,0,Wunderground v.1.15,2013-03-27 11:58:00,
2013-03-27 05:04:00,47.6,44.2,29.97,SE,131,0.0,0.0,88,0.00,,,0.00,0,Wunderground v.1.15,2013-03-27 12:04:00,
2013-03-27 05:11:00,47.5,44.1,29.97,SE,132,0.0,0.0,88,0.00,,,0.00,0,Wunderground v.1.15,2013-03-27 12:11:00,
2013-03-27 05:16:00,47.6,44.2,29.98,SE,131,0.0,0.0,88,0.00,,,0.00,0,Wunderground v.1.15,2013-03-27 12:16:00,
2013-03-27 05:21:00,47.6,44.2,29.97,SE,131,0.0,0.0,88,0.00,,,0.00,0,Wunderground v.1.15,2013-03-27 12:21:00,
2013-03-27 05:27:00,47.6,44.2,29.98,SE,132,0.0,0.0,88,0.00,,,0.00,0,Wunderground v.1.15,2013-03-27 12:27:00,
2013-03-27 05:32:00,47.6,44.2,29.97,SE,131,0.0,0.0,88,0.00,,,0.00,0,Wunderground v.1.15,2013-03-27 12:32:00,
2013-03-27 05:38:00,47.6,44.2,29.97,SE,131,0.0,0.0,88,0.00,,,0.00,0,Wunderground v.1.15,2013-03-27 12:38:00,
2013-03-27 05:43:00,47.6,44.2,29.98,SE,131,0.0,0.0,88,0.00,,,0.00,0,Wunderground v.1.15,2013-03-27 12:43:00,
2013-03-27 05:49:00,47.6,44.2,29.97,SE,131,0.0,0.0,88,0.00,,,0.00,0,Wunderground v.1.15,2013-03-27 12:49:00,
2013-03-27 05:54:00,47.7,44.3,29.97,SE,131,0.0,0.0,88,0.00,,,0.00,0,Wunderground v.1.15,2013-03-27 12:54:00,
2013-03-27 06:01:00,47.7,44.3,29.97,SE,131,0.0,0.0,88,0.00,,,0.00,0,Wunderground v.1.15,2013-03-27 13:01:00,
2013-03-27 06:06:00,47.8,44.4,29.97,SE,132,0.0,0.0,88,0.00,,,0.00,0,Wunderground v.1.15,2013-03-27 13:06:00,
2013-03-27 06:11:00,47.8,44.4,29.97,SE,132,0.0,0.0,88,0.00,,,0.00,0,Wunderground v.1.15,2013-03-27 13:11:00,
2013-03-27 06:17:00,47.9,44.5,29.97,SE,131,0.0,0.0,88,0.00,,,0.00,0,Wunderground v.1.15,2013-03-27 13:17:00,
2013-03-27 06:22:00,47.9,44.5,29.97,SE,131,0.0,0.0,88,0.00,,,0.00,0,Wunderground v.1.15,2013-03-27 13:22:00,
2013-03-27 06:28:00,48.0,44.6,29.97,SE,142,2.0,6.0,88,0.00,,,0.00,0,Wunderground v.1.15,2013-03-27 13:28:00,
2013-03-27 06:34:00,48.1,44.7,29.97,SE,139,3.0,5.0,88,0.00,,,0.00,0,Wunderground v.1.15,2013-03-27 13:34:00,
2013-03-27 06:39:00,48.1,44.7,29.97,SE,140,2.0,5.0,88,0.00,,,0.00,0,Wunderground v.1.15,2013-03-27 13:39:00,
2013-03-27 06:45:00,48.2,44.5,29.98,SE,140,1.0,4.0,87,0.00,,,0.00,0,Wunderground v.1.15,2013-03-27 13:45:00,
2013-03-27 06:50:00,48.2,44.5,29.98,SE,140,0.0,0.0,87,0.00,,,0.00,0,Wunderground v.1.15,2013-03-27 13:50:00,
2013-03-27 06:56:00,48.3,44.6,29.98,SE,140,0.0,1.0,87,0.00,,,0.00,0,Wunderground v.1.15,2013-03-27 13:56:00,
2013-03-27 07:01:00,48.4,44.7,29.98,SE,140,0.0,0.0,87,0.00,,,0.00,0,Wunderground v.1.15,2013-03-27 14:01:00,
2013-03-27 07:07:00,48.4,44.7,29.98,SE,140,0.0,0.0,87,0.00,,,0.00,5,Wunderground v.1.15,2013-03-27 14:07:00,
2013-03-27 07:13:00,48.5,44.8,29.98,SE,140,0.0,0.0,87,0.00,,,0.00,11,Wunderground v.1.15,2013-03-27 14:13:00,
2013-03-27 07:19:00,48.6,44.6,29.98,SE,140,0.0,4.0,86,0.00,,,0.00,21,Wunderground v.1.15,2013-03-27 14:19:00,
2013-03-27 07:24:00,48.7,44.7,29.98,SE,140,0.0,0.0,86,0.00,,,0.00,30,Wunderground v.1.15,2013-03-27 14:24:00,
2013-03-27 07:31:00,48.8,44.8,29.99,SE,140,0.0,0.0,86,0.00,,,0.00,51,Wunderground v.1.15,2013-03-27 14:31:00,
2013-03-27 07:36:00,48.8,44.8,29.99,SE,140,0.0,0.0,86,0.00,,,0.00,44,Wunderground v.1.15,2013-03-27 14:36:00,
2013-03-27 07:42:00,49.0,45.0,29.99,SE,140,0.0,0.0,86,0.00,,,0.00,54,Wunderground v.1.15,2013-03-27 14:42:00,
2013-03-27 07:48:00,49.2,44.9,29.99,SE,140,0.0,0.0,85,0.00,,,0.00,72,Wunderground v.1.15,2013-03-27 14:48:00,
2013-03-27 07:53:00,49.4,45.1,29.99,SE,140,1.0,4.0,85,0.00,,,0.00,83,Wunderground v.1.15,2013-03-27 14:53:00,
2013-03-27 07:59:00,49.7,45.4,29.99,SE,140,1.0,4.0,85,0.00,,,0.00,84,Wunderground v.1.15,2013-03-27 14:59:00,
2013-03-27 08:04:00,49.9,45.3,29.99,SE,140,1.0,3.0,84,0.00,,,0.00,83,Wunderground v.1.15,2013-03-27 15:04:00,
2013-03-27 08:09:00,50.1,45.5,29.99,SE,140,1.0,3.0,84,0.00,,,0.00,120,Wunderground v.1.15,2013-03-27 15:09:00,
2013-03-27 08:14:00,50.4,46.1,29.99,SE,140,0.0,1.0,85,0.00,,,0.00,113,Wunderground v.1.15,2013-03-27 15:14:00,
2013-03-27 08:21:00,50.6,45.9,29.99,SE,140,0.0,0.0,84,0.00,,,0.00,76,Wunderground v.1.15,2013-03-27 15:21:00,
2013-03-27 08:27:00,50.8,46.1,29.99,SE,140,0.0,0.0,84,0.00,,,0.00,141,Wunderground v.1.15,2013-03-27 15:27:00,
2013-03-27 08:32:00,51.0,46.3,29.99,SE,140,0.0,0.0,84,0.00,,,0.00,162,Wunderground v.1.15,2013-03-27 15:32:00,
2013-03-27 08:38:00,51.4,46.4,29.99,SE,140,0.0,4.0,83,0.00,,,0.00,163,Wunderground v.1.15,2013-03-27 15:38:00,
2013-03-27 08:43:00,51.6,46.6,29.99,SE,140,1.0,3.0,83,0.00,,,0.00,207,Wunderground v.1.15,2013-03-27 15:43:00,
2013-03-27 08:48:00,51.9,46.9,29.99,SE,140,0.0,3.0,83,0.00,,,0.00,262,Wunderground v.1.15,2013-03-27 15:48:00,
2013-03-27 08:54:00,52.3,47.3,29.99,SE,140,0.0,3.0,83,0.00,,,0.00,214,Wunderground v.1.15,2013-03-27 15:54:00,
2013-03-27 09:01:00,52.8,47.8,29.99,SE,140,0.0,0.0,83,0.00,,,0.00,223,Wunderground v.1.15,2013-03-27 16:01:00,
2013-03-27 09:06:00,53.1,48.1,29.99,SE,140,0.0,0.0,83,0.00,,,0.00,227,Wunderground v.1.15,2013-03-27 16:06:00,
2013-03-27 09:12:00,53.5,48.5,30.00,SE,140,0.0,0.0,83,0.00,,,0.00,279,Wunderground v.1.15,2013-03-27 16:12:00,
2013-03-27 09:17:00,53.9,48.9,29.99,SE,140,0.0,0.0,83,0.00,,,0.00,322,Wunderground v.1.15,2013-03-27 16:17:00,
2013-03-27 09:23:00,54.1,49.1,30.00,SE,140,0.0,0.0,83,0.00,,,0.00,255,Wunderground v.1.15,2013-03-27 16:23:00,
2013-03-27 09:29:00,54.3,49.2,30.00,SE,140,0.0,0.0,83,0.00,,,0.00,265,Wunderground v.1.15,2013-03-27 16:29:00,
2013-03-27 09:35:00,54.6,49.2,30.00,SE,140,0.0,0.0,82,0.00,,,0.00,461,Wunderground v.1.15,2013-03-27 16:35:00,
2013-03-27 09:41:00,55.1,49.7,30.00,SE,140,0.0,0.0,82,0.00,,,0.00,446,Wunderground v.1.15,2013-03-27 16:41:00,
2013-03-27 09:46:00,55.6,49.9,30.00,SSE,164,0.0,0.0,81,0.00,,,0.00,494,Wunderground v.1.15,2013-03-27 16:46:00,
2013-03-27 09:52:00,56.0,49.9,30.00,South,171,1.0,4.0,80,0.00,,,0.00,517,Wunderground v.1.15,2013-03-27 16:52:00,
2013-03-27 09:57:00,56.4,50.3,30.00,SSE,167,1.0,7.0,80,0.00,,,0.00,464,Wunderground v.1.15,2013-03-27 16:57:00,
2013-03-27 10:02:00,56.8,50.4,30.00,SSE,165,1.0,1.0,79,0.00,,,0.00,554,Wunderground v.1.15,2013-03-27 17:02:00,
2013-03-27 10:08:00,57.2,50.4,30.00,South,177,1.0,4.0,78,0.00,,,0.00,503,Wunderground v.1.15,2013-03-27 17:08:00,
2013-03-27 10:13:00,57.3,49.8,30.00,SSE,150,3.0,7.0,76,0.00,,,0.00,555,Wunderground v.1.15,2013-03-27 17:13:00,
2013-03-27 10:18:00,57.3,49.4,30.00,SSE,150,5.0,7.0,75,0.00,,,0.00,563,Wunderground v.1.15,2013-03-27 17:18:00,
2013-03-27 10:23:00,57.3,49.8,30.00,South,173,3.0,6.0,76,0.00,,,0.00,580,Wunderground v.1.15,2013-03-27 17:23:00,
2013-03-27 10:28:00,57.6,50.1,30.00,South,185,3.0,6.0,76,0.00,,,0.00,619,Wunderground v.1.15,2013-03-27 17:28:00,
2013-03-27 10:34:00,57.9,50.0,30.00,SSE,162,2.0,6.0,75,0.00,,,0.00,626,Wunderground v.1.15,2013-03-27 17:34:00,
2013-03-27 10:39:00,58.2,49.6,30.01,SSW,198,2.0,6.0,73,0.00,,,0.00,636,Wunderground v.1.15,2013-03-27 17:39:00,
2013-03-27 10:45:00,58.4,49.8,30.00,SW,214,3.0,9.0,73,0.00,,,0.00,179,Wunderground v.1.15,2013-03-27 17:45:00,
2013-03-27 10:51:00,58.6,49.6,30.00,WSW,244,3.0,3.0,72,0.00,,,0.00,666,Wunderground v.1.15,2013-03-27 17:51:00,
2013-03-27 10:56:00,58.8,49.8,30.00,SSW,205,3.0,6.0,72,0.00,,,0.00,780,Wunderground v.1.15,2013-03-27 17:56:00,
2013-03-27 11:01:00,59.0,49.6,30.00,SW,216,2.0,5.0,71,0.00,,,0.00,285,Wunderground v.1.15,2013-03-27 18:01:00,
2013-03-27 11:06:00,58.7,49.3,30.00,South,175,2.0,5.0,71,0.00,,,0.00,341,Wunderground v.1.15,2013-03-27 18:06:00,
2013-03-27 11:12:00,58.5,49.5,30.01,SSE,155,3.0,4.0,72,0.00,,,0.00,401,Wunderground v.1.15,2013-03-27 18:12:00,
2013-03-27 11:17:00,58.6,49.6,30.01,West,270,3.0,4.0,72,0.00,,,0.00,281,Wunderground v.1.15,2013-03-27 18:17:00,
2013-03-27 11:22:00,58.3,49.3,30.00,WNW,290,1.0,2.0,72,0.00,,,0.00,255,Wunderground v.1.15,2013-03-27 18:22:00,
2013-03-27 11:28:00,58.3,49.3,30.01,SSE,168,1.0,4.0,72,0.00,,,0.00,301,Wunderground v.1.15,2013-03-27 18:28:00,
2013-03-27 11:34:00,58.4,49.8,30.01,West,263,1.0,1.0,73,0.00,,,0.00,292,Wunderground v.1.15,2013-03-27 18:34:00,
2013-03-27 11:40:00,58.3,49.7,30.01,NW,311,1.0,3.0,73,0.00,,,0.00,251,Wunderground v.1.15,2013-03-27 18:40:00,
2013-03-27 11:46:00,58.2,49.6,30.01,West,262,2.0,4.0,73,0.00,,,0.00,338,Wunderground v.1.15,2013-03-27 18:46:00,
2013-03-27 11:52:00,58.1,49.5,30.01,West,273,2.0,5.0,73,0.00,,,0.00,318,Wunderground v.1.15,2013-03-27 18:52:00,
2013-03-27 11:57:00,58.0,49.4,30.01,West,281,3.0,7.0,73,0.00,,,0.00,278,Wunderground v.1.15,2013-03-27 18:57:00,
2013-03-27 12:03:00,58.0,49.4,30.01,SW,227,4.0,8.0,73,0.00,,,0.00,325,Wunderground v.1.15,2013-03-27 19:03:00,
2013-03-27 12:09:00,57.9,49.3,30.01,West,261,4.0,8.0,73,0.00,,,0.00,380,Wunderground v.1.15,2013-03-27 19:09:00,
2013-03-27 12:14:00,58.0,49.8,30.01,South,188,4.0,8.0,74,0.00,,,0.00,404,Wunderground v.1.15,2013-03-27 19:14:00,
2013-03-27 12:19:00,58.1,49.5,30.01,West,273,3.0,8.0,73,0.00,,,0.00,392,Wunderground v.1.15,2013-03-27 19:19:00,
2013-03-27 12:25:00,58.3,50.0,30.01,SW,234,3.0,9.0,74,0.00,,,0.00,457,Wunderground v.1.15,2013-03-27 19:25:00,
2013-03-27 12:31:00,58.5,50.6,30.01,West,261,3.0,9.0,75,0.00,,,0.00,547,Wunderground v.1.15,2013-03-27 19:31:00,
2013-03-27 12:36:00,59.0,50.0,30.01,WSW,244,2.0,6.0,72,0.00,,,0.00,550,Wunderground v.1.15,2013-03-27 19:36:00,
2013-03-27 12:41:00,58.9,49.9,30.01,WSW,237,4.0,5.0,72,0.00,,,0.00,529,Wunderground v.1.15,2013-03-27 19:41:00,
2013-03-27 12:47:00,59.0,50.0,30.01,West,263,5.0,9.0,72,0.00,,,0.00,401,Wunderground v.1.15,2013-03-27 19:47:00,
2013-03-27 12:52:00,59.1,50.5,30.00,West,277,4.0,4.0,73,0.00,,,0.00,742,Wunderground v.1.15,2013-03-27 19:52:00,
2013-03-27 12:58:00,59.7,50.3,30.00,SSW,212,2.0,4.0,71,0.00,,,0.00,345,Wunderground v.1.15,2013-03-27 19:58:00,
2013-03-27 13:04:00,60.1,50.7,30.00,WSW,246,1.0,3.0,71,0.00,,,0.00,492,Wunderground v.1.15,2013-03-27 20:04:00,
2013-03-27 13:09:00,60.2,50.8,30.00,WNW,299,2.0,5.0,71,0.00,,,0.00,490,Wunderground v.1.15,2013-03-27 20:09:00,
2013-03-27 13:15:00,60.4,50.2,30.00,West,274,2.0,6.0,69,0.00,,,0.00,490,Wunderground v.1.15,2013-03-27 20:15:00,
2013-03-27 13:21:00,60.4,50.6,30.00,WSW,251,2.0,7.0,70,0.00,,,0.00,403,Wunderground v.1.15,2013-03-27 20:21:00,
2013-03-27 13:26:00,60.4,50.6,30.00,WNW,285,3.0,7.0,70,0.00,,,0.00,487,Wunderground v.1.15,2013-03-27 20:26:00,
2013-03-27 13:31:00,60.3,50.9,30.00,WSW,258,5.0,5.0,71,0.00,,,0.00,742,Wunderground v.1.15,2013-03-27 20:31:00,
2013-03-27 13:37:00,60.2,50.4,30.00,West,261,5.0,10.0,70,0.00,,,0.00,480,Wunderground v.1.15,2013-03-27 20:37:00,
2013-03-27 13:42:00,60.0,50.2,30.00,South,188,5.0,6.0,70,0.00,,,0.00,408,Wunderground v.1.15,2013-03-27 20:42:00,
2013-03-27 13:48:00,60.3,50.5,30.00,West,265,4.0,9.0,70,0.00,,,0.00,519,Wunderground v.1.15,2013-03-27 20:48:00,
2013-03-27 13:53:00,60.2,50.8,30.00,WNW,302,4.0,8.0,71,0.00,,,0.00,1062,Wunderground v.1.15,2013-03-27 20:53:00,
2013-03-27 13:59:00,60.3,50.9,30.00,WSW,250,6.0,9.0,71,0.00,,,0.00,432,Wunderground v.1.15,2013-03-27 20:59:00,
2013-03-27 14:04:00,60.4,51.0,30.00,West,277,6.0,9.0,71,0.00,,,0.00,654,Wunderground v.1.15,2013-03-27 21:04:00,
2013-03-27 14:11:00,60.1,50.7,30.00,WNW,292,5.0,7.0,71,0.00,,,0.00,452,Wunderground v.1.15,2013-03-27 21:11:00,
2013-03-27 14:17:00,59.8,50.8,30.00,West,272,5.0,8.0,72,0.00,,,0.00,452,Wunderground v.1.15,2013-03-27 21:17:00,
2013-03-27 14:22:00,59.7,50.3,30.00,NW,309,7.0,9.0,71,0.00,,,0.00,534,Wunderground v.1.15,2013-03-27 21:22:00,
2013-03-27 14:28:00,59.3,50.6,30.00,WNW,284,7.0,10.0,73,0.00,,,0.00,436,Wunderground v.1.15,2013-03-27 21:28:00,
2013-03-27 14:33:00,59.1,50.8,30.00,WNW,286,7.0,11.0,74,0.00,,,0.00,448,Wunderground v.1.15,2013-03-27 21:33:00,
2013-03-27 14:38:00,59.3,51.4,30.00,WNW,297,8.0,13.0,75,0.00,,,0.00,408,Wunderground v.1.15,2013-03-27 21:38:00,
2013-03-27 14:44:00,59.5,51.2,30.00,WNW,291,8.0,9.0,74,0.00,,,0.00,374,Wunderground v.1.15,2013-03-27 21:44:00,
2013-03-27 14:50:00,59.1,50.8,30.00,WNW,286,9.0,13.0,74,0.00,,,0.00,311,Wunderground v.1.15,2013-03-27 21:50:00,
2013-03-27 14:56:00,58.8,50.9,30.00,WNW,282,9.0,13.0,75,0.00,,,0.00,432,Wunderground v.1.15,2013-03-27 21:56:00,
2013-03-27 15:01:00,58.7,50.8,30.00,WSW,255,8.0,12.0,75,0.00,,,0.00,329,Wunderground v.1.15,2013-03-27 22:01:00,
2013-03-27 15:06:00,58.7,51.2,30.00,WNW,300,7.0,12.0,76,0.00,,,0.00,364,Wunderground v.1.15,2013-03-27 22:06:00,
2013-03-27 15:12:00,58.6,51.1,30.00,WNW,284,9.0,15.0,76,0.00,,,0.00,376,Wunderground v.1.15,2013-03-27 22:12:00,
2013-03-27 15:17:00,58.5,51.3,30.00,WNW,300,10.0,15.0,77,0.00,,,0.00,461,Wunderground v.1.15,2013-03-27 22:17:00,
2013-03-27 15:23:00,58.3,51.1,30.00,West,273,9.0,15.0,77,0.00,,,0.00,295,Wunderground v.1.15,2013-03-27 22:23:00,
2013-03-27 15:29:00,57.9,51.4,30.00,WNW,286,10.0,15.0,79,0.00,,,0.00,239,Wunderground v.1.15,2013-03-27 22:29:00,
2013-03-27 15:34:00,57.7,51.2,30.00,West,276,9.0,9.0,79,0.00,,,0.00,213,Wunderground v.1.15,2013-03-27 22:34:00,
2013-03-27 15:39:00,57.6,51.5,30.00,WSW,244,7.0,12.0,80,0.00,,,0.00,216,Wunderground v.1.15,2013-03-27 22:39:00,
2013-03-27 15:44:00,57.5,51.0,30.00,WNW,294,8.0,11.0,79,0.00,,,0.00,264,Wunderground v.1.15,2013-03-27 22:44:00,
2013-03-27 15:49:00,57.3,50.8,30.00,WSW,256,9.0,11.0,79,0.00,,,0.00,392,Wunderground v.1.15,2013-03-27 22:49:00,
2013-03-27 15:54:00,57.5,51.4,30.00,West,268,8.0,9.0,80,0.00,,,0.00,410,Wunderground v.1.15,2013-03-27 22:54:00,
2013-03-27 15:59:00,57.8,51.3,30.00,WNW,294,7.0,10.0,79,0.00,,,0.00,483,Wunderground v.1.15,2013-03-27 22:59:00,
2013-03-27 16:05:00,58.1,52.0,30.00,West,273,8.0,10.0,80,0.00,,,0.00,698,Wunderground v.1.15,2013-03-27 23:05:00,
2013-03-27 16:11:00,58.1,51.6,30.00,WNW,283,9.0,9.0,79,0.00,,,0.00,429,Wunderground v.1.15,2013-03-27 23:11:00,
2013-03-27 16:16:00,58.1,51.6,30.00,West,281,9.0,12.0,79,0.00,,,0.00,708,Wunderground v.1.15,2013-03-27 23:16:00,
2013-03-27 16:21:00,58.3,51.8,30.00,NW,325,8.0,9.0,79,0.00,,,0.00,251,Wunderground v.1.15,2013-03-27 23:21:00,
2013-03-27 16:26:00,57.8,51.3,30.00,West,274,10.0,15.0,79,0.00,,,0.00,278,Wunderground v.1.15,2013-03-27 23:26:00,
2013-03-27 16:31:00,57.3,51.2,30.00,NNW,335,11.0,14.0,80,0.00,,,0.00,276,Wunderground v.1.15,2013-03-27 23:31:00,
2013-03-27 16:37:00,57.1,51.3,30.00,WSW,254,9.0,14.0,81,0.00,,,0.00,262,Wunderground v.1.15,2013-03-27 23:37:00,
2013-03-27 16:42:00,56.9,51.5,30.00,West,271,8.0,13.0,82,0.00,,,0.00,163,Wunderground v.1.15,2013-03-27 23:42:00,
2013-03-27 16:47:00,56.6,51.2,30.00,NW,315,8.0,13.0,82,0.00,,,0.00,156,Wunderground v.1.15,2013-03-27 23:47:00,
2013-03-27 16:53:00,56.3,51.2,30.00,WNW,284,9.0,9.0,83,0.00,,,0.00,146,Wunderground v.1.15,2013-03-27 23:53:00,
2013-03-27 16:59:00,56.1,51.3,30.00,WNW,301,8.0,12.0,84,0.00,,,0.00,153,Wunderground v.1.15,2013-03-27 23:59:00,
2013-03-27 17:04:00,55.9,51.1,30.00,WNW,290,9.0,13.0,84,0.00,,,0.00,97,Wunderground v.1.15,2013-03-28 00:04:00,
2013-03-27 17:11:00,55.7,51.3,30.00,WNW,300,8.0,8.0,85,0.00,,,0.00,128,Wunderground v.1.15,2013-03-28 00:11:00,
2013-03-27 17:16:00,55.5,51.1,30.00,WNW,289,8.0,11.0,85,0.00,,,0.00,151,Wunderground v.1.15,2013-03-28 00:16:00,
2013-03-27 17:21:00,55.4,51.3,30.00,West,281,9.0,9.0,86,0.00,,,0.00,91,Wunderground v.1.15,2013-03-28 00:21:00,
2013-03-27 17:27:00,55.5,51.7,30.00,WNW,290,7.0,9.0,87,0.00,,,0.00,47,Wunderground v.1.15,2013-03-28 00:27:00,
2013-03-27 17:32:00,55.4,51.6,30.00,WSW,241,7.0,10.0,87,0.00,,,0.00,98,Wunderground v.1.15,2013-03-28 00:32:00,
2013-03-27 17:38:00,55.3,51.2,30.00,West,281,7.0,10.0,86,0.00,,,0.00,146,Wunderground v.1.15,2013-03-28 00:38:00,
2013-03-27 17:43:00,55.3,51.2,30.00,West,265,8.0,10.0,86,0.00,,,0.00,72,Wunderground v.1.15,2013-03-28 00:43:00,
2013-03-27 17:49:00,55.1,51.0,30.00,WNW,299,8.0,10.0,86,0.00,,,0.00,58,Wunderground v.1.15,2013-03-28 00:49:00,
2013-03-27 17:54:00,55.0,50.9,30.00,WNW,282,8.0,9.0,86,0.00,,,0.00,60,Wunderground v.1.15,2013-03-28 00:54:00,
2013-03-27 18:01:00,55.0,50.9,30.00,WNW,298,7.0,7.0,86,0.00,,,0.00,63,Wunderground v.1.15,2013-03-28 01:01:00,
2013-03-27 18:06:00,55.0,50.9,30.00,West,275,7.0,10.0,86,0.00,,,0.00,54,Wunderground v.1.15,2013-03-28 01:06:00,
2013-03-27 18:12:00,55.0,50.9,30.00,WSW,248,7.0,12.0,86,0.00,,,0.00,42,Wunderground v.1.15,2013-03-28 01:12:00,
2013-03-27 18:17:00,54.9,50.8,30.00,West,278,7.0,12.0,86,0.00,,,0.00,33,Wunderground v.1.15,2013-03-28 01:17:00,
2013-03-27 18:22:00,54.8,50.7,30.00,West,264,8.0,8.0,86,0.00,,,0.00,19,Wunderground v.1.15,2013-03-28 01:22:00,
2013-03-27 18:27:00,54.7,50.6,30.00,West,266,7.0,8.0,86,0.00,,,0.00,16,Wunderground v.1.15,2013-03-28 01:27:00,
2013-03-27 18:32:00,54.7,50.6,30.00,WNW,286,6.0,9.0,86,0.00,,,0.00,16,Wunderground v.1.15,2013-03-28 01:32:00,
2013-03-27 18:38:00,54.6,50.5,30.00,West,259,7.0,9.0,86,0.00,,,0.00,19,Wunderground v.1.15,2013-03-28 01:38:00,
2013-03-27 18:43:00,54.5,50.4,30.00,WNW,300,7.0,7.0,86,0.00,,,0.00,23,Wunderground v.1.15,2013-03-28 01:43:00,
2013-03-27 18:49:00,54.4,50.6,30.00,WNW,284,6.0,10.0,87,0.00,,,0.00,19,Wunderground v.1.15,2013-03-28 01:49:00,
2013-03-27 18:54:00,54.4,50.6,30.00,West,271,6.0,8.0,87,0.00,,,0.00,18,Wunderground v.1.15,2013-03-28 01:54:00,
2013-03-27 18:59:00,54.3,50.8,30.00,West,271,5.0,9.0,88,0.00,,,0.00,16,Wunderground v.1.15,2013-03-28 01:59:00,
2013-03-27 19:05:00,54.2,50.4,30.01,WSW,255,5.0,8.0,87,0.00,,,0.00,11,Wunderground v.1.15,2013-03-28 02:05:00,
2013-03-27 19:10:00,54.1,50.6,30.01,West,274,5.0,8.0,88,0.00,,,0.00,7,Wunderground v.1.15,2013-03-28 02:10:00,
2013-03-27 19:16:00,54.1,50.3,30.01,West,261,5.0,9.0,87,0.00,,,0.00,5,Wunderground v.1.15,2013-03-28 02:16:00,
2013-03-27 19:21:00,54.1,50.3,30.00,West,280,5.0,5.0,87,0.00,,,0.00,0,Wunderground v.1.15,2013-03-28 02:21:00,
2013-03-27 19:27:00,54.1,50.3,30.00,WNW,282,3.0,7.0,87,0.00,,,0.00,0,Wunderground v.1.15,2013-03-28 02:27:00,
2013-03-27 19:33:00,54.1,50.3,30.01,West,264,4.0,7.0,87,0.00,,,0.00,0,Wunderground v.1.15,2013-03-28 02:33:00,
2013-03-27 19:39:00,54.1,50.3,30.01,West,278,3.0,8.0,87,0.00,,,0.00,0,Wunderground v.1.15,2013-03-28 02:39:00,
2013-03-27 19:45:00,54.1,50.6,30.01,West,275,3.0,5.0,88,0.00,,,0.00,0,Wunderground v.1.15,2013-03-28 02:45:00,
2013-03-27 19:51:00,54.0,50.5,30.01,WSW,258,2.0,3.0,88,0.00,,,0.00,0,Wunderground v.1.15,2013-03-28 02:51:00,
2013-03-27 19:57:00,53.9,50.4,30.01,WSW,254,3.0,5.0,88,0.00,,,0.00,0,Wunderground v.1.15,2013-03-28 02:57:00,
2013-03-27 20:02:00,53.8,50.3,30.01,West,261,3.0,6.0,88,0.00,,,0.00,0,Wunderground v.1.15,2013-03-28 03:02:00,
2013-03-27 20:08:00,53.7,50.2,30.01,West,272,4.0,6.0,88,0.00,,,0.00,0,Wunderground v.1.15,2013-03-28 03:08:00,
2013-03-27 20:14:00,53.5,50.0,30.01,West,269,5.0,6.0,88,0.00,,,0.00,0,Wunderground v.1.15,2013-03-28 03:14:00,
2013-03-27 20:19:00,53.4,50.2,30.01,West,276,4.0,6.0,89,0.00,,,0.00,0,Wunderground v.1.15,2013-03-28 03:19:00,
2013-03-27 20:25:00,53.3,50.1,30.01,West,259,4.0,6.0,89,0.00,,,0.00,0,Wunderground v.1.15,2013-03-28 03:25:00,
2013-03-27 20:31:00,53.3,50.1,30.01,West,263,3.0,3.0,89,0.00,,,0.00,0,Wunderground v.1.15,2013-03-28 03:31:00,
2013-03-27 20:36:00,53.2,50.0,30.01,West,265,2.0,3.0,89,0.00,,,0.00,0,Wunderground v.1.15,2013-03-28 03:36:00,
2013-03-27 20:42:00,53.1,49.9,30.02,West,266,1.0,2.0,89,0.00,,,0.00,0,Wunderground v.1.15,2013-03-28 03:42:00,
2013-03-27 20:47:00,53.0,50.1,30.02,WSW,237,1.0,3.0,90,0.00,,,0.00,0,Wunderground v.1.15,2013-03-28 03:47:00,
2013-03-27 20:52:00,53.0,50.1,30.02,West,265,1.0,1.0,90,0.00,,,0.00,0,Wunderground v.1.15,2013-03-28 03:52:00,
2013-03-27 20:58:00,52.9,50.0,30.02,WSW,253,1.0,5.0,90,0.00,,,0.00,0,Wunderground v.1.15,2013-03-28 03:58:00,
2013-03-27 21:01:00,52.9,50.0,30.02,West,269,1.0,1.0,90,0.00,,,0.00,0,Wunderground v.1.15,2013-03-28 04:01:00,
2013-03-27 21:02:00,52.9,50.0,30.02,West,273,1.0,1.0,90,0.00,,,0.00,0,Wunderground v.1.15,2013-03-28 04:02:00,
2013-03-27 21:03:00,52.9,50.0,30.02,West,269,1.0,1.0,90,0.00,,,0.00,0,Wunderground v.1.15,2013-03-28 04:03:00,
2013-03-27 21:08:00,52.9,50.0,30.02,WSW,252,0.0,1.0,90,0.00,,,0.00,0,Wunderground v.1.15,2013-03-28 04:08:00,
2013-03-27 21:13:00,52.9,50.0,30.02,WNW,284,1.0,4.0,90,0.00,,,0.00,0,Wunderground v.1.15,2013-03-28 04:13:00,
2013-03-27 21:19:00,52.9,50.0,30.02,WNW,284,1.0,4.0,90,0.00,,,0.00,0,Wunderground v.1.15,2013-03-28 04:19:00,
2013-03-27 21:24:00,52.9,50.0,30.02,WNW,284,0.0,3.0,90,0.00,,,0.00,0,Wunderground v.1.15,2013-03-28 04:24:00,
2013-03-27 21:31:00,52.8,49.9,30.03,WSW,243,0.0,5.0,90,0.00,,,0.00,0,Wunderground v.1.15,2013-03-28 04:31:00,
2013-03-27 21:36:00,52.8,49.9,30.03,WSW,242,1.0,5.0,90,0.00,,,0.00,0,Wunderground v.1.15,2013-03-28 04:36:00,
2013-03-27 21:42:00,52.8,50.2,30.03,WSW,248,0.0,4.0,91,0.00,,,0.00,0,Wunderground v.1.15,2013-03-28 04:42:00,
2013-03-27 21:48:00,52.9,50.3,30.03,West,267,1.0,4.0,91,0.00,,,0.00,0,Wunderground v.1.15,2013-03-28 04:48:00,
2013-03-27 21:53:00,52.9,50.3,30.03,WNW,284,2.0,5.0,91,0.00,,,0.00,0,Wunderground v.1.15,2013-03-28 04:53:00,
2013-03-27 21:58:00,52.8,50.2,30.03,West,273,3.0,5.0,91,0.00,,,0.00,0,Wunderground v.1.15,2013-03-28 04:58:00,
2013-03-27 22:04:00,52.8,50.2,30.03,WNW,284,1.0,4.0,91,0.00,,,0.00,0,Wunderground v.1.15,2013-03-28 05:04:00,
2013-03-27 22:09:00,52.7,50.1,30.04,West,271,1.0,4.0,91,0.00,,,0.00,0,Wunderground v.1.15,2013-03-28 05:09:00,
2013-03-27 22:15:00,52.6,50.0,30.03,West,281,2.0,6.0,91,0.00,,,0.00,0,Wunderground v.1.15,2013-03-28 05:15:00,
2013-03-27 22:21:00,52.6,50.3,30.03,West,274,2.0,6.0,92,0.00,,,0.00,0,Wunderground v.1.15,2013-03-28 05:21:00,
2013-03-27 22:26:00,52.5,50.2,30.03,West,275,0.0,2.0,92,0.00,,,0.00,0,Wunderground v.1.15,2013-03-28 05:26:00,
2013-03-27 22:32:00,52.4,50.1,30.03,West,274,0.0,0.0,92,0.00,,,0.00,0,Wunderground v.1.15,2013-03-28 05:32:00,
2013-03-27 22:38:00,52.4,50.1,30.03,West,275,0.0,0.0,92,0.00,,,0.00,0,Wunderground v.1.15,2013-03-28 05:38:00,
2013-03-27 22:44:00,52.3,50.0,30.04,West,274,0.0,0.0,92,0.00,,,0.00,0,Wunderground v.1.15,2013-03-28 05:44:00,
2013-03-27 22:49:00,52.2,49.9,30.04,West,266,0.0,0.0,92,0.00,,,0.00,0,Wunderground v.1.15,2013-03-28 05:49:00,
2013-03-27 22:54:00,52.2,49.9,30.04,West,265,0.0,0.0,92,0.00,,,0.00,0,Wunderground v.1.15,2013-03-28 05:54:00,
2013-03-27 23:01:00,52.1,49.8,30.04,WSW,258,0.0,0.0,92,0.00,,,0.00,0,Wunderground v.1.15,2013-03-28 06:01:00,
2013-03-27 23:07:00,52.1,49.8,30.04,WSW,254,0.0,0.0,92,0.00,,,0.00,0,Wunderground v.1.15,2013-03-28 06:07:00,
2013-03-27 23:12:00,52.0,49.7,30.04,WSW,254,0.0,0.0,92,0.00,,,0.00,0,Wunderground v.1.15,2013-03-28 06:12:00,
2013-03-27 23:17:00,52.0,49.7,30.04,WSW,254,0.0,0.0,92,0.00,,,0.00,0,Wunderground v.1.15,2013-03-28 06:17:00,
2013-03-27 23:22:00,52.0,50.0,30.04,WSW,254,0.0,0.0,93,0.00,,,0.00,0,Wunderground v.1.15,2013-03-28 06:22:00,
2013-03-27 23:28:00,51.9,49.9,30.04,WSW,254,0.0,0.0,93,0.00,,,0.00,0,Wunderground v.1.15,2013-03-28 06:28:00,
2013-03-27 23:34:00,51.9,49.9,30.04,WSW,254,0.0,0.0,93,0.00,,,0.00,0,Wunderground v.1.15,2013-03-28 06:34:00,
2013-03-27 23:41:00,51.9,49.9,30.04,WSW,254,0.0,0.0,93,0.00,,,0.00,0,Wunderground v.1.15,2013-03-28 06:41:00,
2013-03-27 23:46:00,51.9,49.9,30.04,WSW,254,0.0,0.0,93,0.00,,,0.00,0,Wunderground v.1.15,2013-03-28 06:46:00,
2013-03-27 23:51:00,51.8,49.8,30.04,WSW,254,0.0,0.0,93,0.00,,,0.00,0,Wunderground v.1.15,2013-03-28 06:51:00,
2013-03-27 23:56:00,51.8,49.8,30.04,WSW,254,0.0,0.0,93,0.00,,,0.00,0,Wunderground v.1.15,2013-03-28 06:56:00,